Regional Weather Roundup
Issued by NWS Lake Charles, LA

Home | Current Version | Previous Version | Text Only | Print | Product List | Glossary On
Versions: 1 2 3 4 5 6 7 8 9 10 11 12 13 14 15 16 17 18 19 20 21 22 23 24 25 26 27 28 29 30 31 32 33 34 35 36 37 38 39 40 41 42 43 44 45 46 47 48 49 50
000
ASUS44 KLCH 021010
RWRLCH
RWRLCH
REGIONAL WEATHER ROUNDUP
NATIONAL WEATHER SERVICE LAKE CHARLES LA
500 AM CDT THU JUL 02 2015

Note: "fair" indicates few or no clouds below 12,000 feet with no
significant weather and/or obstructions to visibility.


ACROSS SOUTHEAST TEXAS

CITY           SKY/WX    TMP DP  RH WIND       PRES   REMARKS
BEAUMONT       PTCLDY    74  73  97 CALM      30.03R
BEAUMONT CITY  NOT AVBL
ORANGE         NOT AVBL
JASPER         NOT AVBL
$$

ACROSS CENTRAL LOUISIANA

CITY           SKY/WX    TMP DP  RH WIND       PRES   REMARKS
LEESVILLE      MOCLDY    72  70  92 S5        30.03R
FULLERTON        N/A     73  69  87 CALM      30.01S
ALEXANDRIA INT MOCLDY    73  70  90 SW3       30.01S
ESLER FIELD    MOCLDY    73  70  90 SW3       30.03R
DERIDDER       NOT AVBL
OAKDALE        PTSUNNY   72  71  95 CALM      30.03F
OPELOUSAS      NOT AVBL
$$

ACROSS SOUTHWEST AND SOUTH CENTRAL LOUISIANA

CITY           SKY/WX    TMP DP  RH WIND       PRES   REMARKS
SULPHUR        NOT AVBL
LAKE CHARLES   CLOUDY    75  74  96 CALM      30.04R
CHENNAULT INT  NOT AVBL
CAMERON PHI    SUNNY     81  75  83 CALM      30.07R
DEQUINCY       NOT AVBL
JENNINGS       NOT AVBL
LAFAYETTE      CLOUDY    75  72  90 CALM      30.05R
NEW IBERIA     NOT AVBL
ABBEVILLE        N/A     74  73  96 CALM      30.05R
PATTERSON      PTCLDY    73  72  94 CALM      30.06S
SALT POINT       N/A     77  76  96 CALM      30.03S
$$

SELECTED SITES ACROSS THE REGION

CITY           SKY/WX    TMP DP  RH WIND       PRES   REMARKS
HOUSTON BUSH   MOCLDY    71  70  96 CALM      30.04R
HOUSTON HOBBY  MOCLDY    72  70  93 CALM      30.03R
GALVESTON      MOCLDY    78  76  93 NE3       30.03R
COLLEGE STAT   PTCLDY    71  69  93 SE5       30.02R
CONROE         FOG       71  69  93 CALM      30.04R VSB 3/4
HUNTSVILLE     CLOUDY    73  71  93 CALM      30.04R
LUFKIN         PTCLDY    73  69  87 S5        30.02F
SHREVEPORT     MOCLDY    74  69  85 SW8       29.98S
MONROE         MOCLDY    73  69  87 SW9       29.99S
NATCHEZ MS     MOCLDY    73  68  83 SW7       30.03S
BATON ROUGE    CLOUDY    74  72  93 CALM      30.04S
N.O. INTL ARPT CLOUDY    75  69  81 S7        30.05S
SLIDELL        MOCLDY    75  75 100 CALM      30.05R
$$

MARINE REPORTS

STATION/POSITION TIME  TEMP    WIND        PRES    VSBY  WAVE
                       AIR SEA DIR/SP/G                  HT/PER
                 (UTC) (F)     (DEG/KT/KT) (MB)    (MI)  (FT/S)
BUOY 30 S HIGH I 0950   81 82  100/  4/  4 1016.3R         3/ 7
SEA RIM ST PARK  0900   80     190/  4/  5 1017.1R
PORT ARTHUR      0900      83     CALM     1016.8R
SABINE PASS N    0900   78 83  210/  1/  2 1016.9R
TEXAS POINT      NOT AVBL
CALCASIEU PASS   0900   81 83  200/  5/  7   N/A
LK CHARLES BEACH 0900   76 83                N/A
MARSH ISLAND     0900   85     230/  3/  8   N/A           0
FRESH WATER LOCK 0900   82 84  190/  8/ 10 1017.0R
AMERADA PASS     0900   77 82   CALM  /  1 1017.4R
$$


USA.gov is the U.S. government's official web portal to all federal, state and local government web resources and services.